Simultaneous Nadir Overpasses (SNOs) Predictions

Prediction of SNOs between METOP-B and NOAA-19 Satellite Orbit:

Table of predicted SNOs for the next 14.0 days since TLE Epoch: 10/9/2021
Index Date (METOP-B) Time (METOP-B) Lat,Lon (METOP-B) SZA (METOP-B ) Date (NOAA-19) Time (NOAA-19) Lat,Lon (NOAA-19) SZA (NOAA-19 ) Distance(km) Time Diff (sec)
1 10/11/2021 17:45:50 80.66, -55.92 89.49 10/11/2021 17:44:45 80.65, -55.97 89.45 1.27 65
2 10/11/2021 18:36:32 -80.65, 111.21 90.53 10/11/2021 18:35:40 -80.66, 111.19 90.55 1.04 52
3 10/11/2021 19:27:12 80.65, -81.39 89.50 10/11/2021 19:26:45 80.65, -81.39 89.48 0.29 27
4 10/11/2021 20:17:54 -80.64, 85.74 90.52 10/11/2021 20:17:40 -80.65, 85.77 90.51 1.71 14
5 10/11/2021 21:08:34 80.64,-106.87 89.50 10/11/2021 21:08:45 80.65,-106.81 89.52 1.22 11
6 10/11/2021 21:59:15 -80.65, 60.60 90.47 10/11/2021 21:59:39 -80.64, 60.71 90.46 2.44 24
7 10/11/2021 22:49:56 80.63,-132.34 89.51 10/11/2021 22:50:45 80.64,-132.23 89.55 2.41 49
8 10/11/2021 23:40:37 -80.64, 35.13 90.46 10/11/2021 23:41:39 -80.64, 35.29 90.43 3.01 62
9 10/22/2021 21:31:19 -80.67, 67.85 86.40 10/22/2021 21:30:10 -80.66, 68.01 86.42 3.20 69
10 10/22/2021 22:21:59 80.67,-124.85 93.61 10/22/2021 22:21:14 80.66,-124.75 93.60 2.27 45
11 10/22/2021 23:12:41 -80.66, 42.38 86.39 10/22/2021 23:12:11 -80.67, 42.23 86.41 2.63 30
12 10/23/2021 00:03:21 80.66,-150.33 93.62 10/23/2021 00:03:14 80.65,-150.17 93.63 2.89 7
13 10/23/2021 00:54:03 -80.65, 16.90 86.39 10/23/2021 00:54:11 -80.66, 16.81 86.38 1.94 8
14 10/23/2021 01:44:43 80.65,-175.81 93.62 10/23/2021 01:45:15 80.66,-175.95 93.63 3.05 32
15 10/23/2021 02:35:25 -80.64, -8.58 86.38 10/23/2021 02:36:11 -80.66, -8.61 86.35 1.92 46



Historial Predications of SNOs between METOP-B and NOAA-19
